Location: Newark
(5.8900°S, 42.6378°W)
Time: 18:07:53
(UTC+00:00)

Courier 1B - All Passes

Search period start: 22 September 2019 00:00
Search period end: 02 October 2019 00:00
Orbit: 962 x 1209 km, 28.3° (Epoch: 21 September)

Date Brightness Start Highest point End Pass type
(mag) Time Alt. Az. Time Alt. Az. Time Alt. Az.
22 Sep - 00:36:51 10° SSW 00:41:21 18° SSE 00:45:42 10° ESE visible
22 Sep - 02:29:39 10° SW 02:36:06 51° SSE 02:42:21 10° ENE night (unlit)
22 Sep - 04:24:00 10° W 04:30:06 43° NNW 04:36:13 10° NE night (unlit)
22 Sep - 06:22:58 10° NW 06:24:29 11° NNW 06:26:00 10° NNW visible
22 Sep - 14:05:14 10° NNW 14:10:29 19° NNE 14:15:48 10° ENE daylight
22 Sep - 15:57:18 10° NW 16:05:03 64° NNE 16:12:48 10° ESE daylight
22 Sep - 17:52:11 10° W 17:59:35 44° SSW 18:06:51 10° SE daylight
22 Sep - 19:49:57 10° WSW 19:54:50 18° SSW 19:59:37 10° SSE daylight
22 Sep - 21:49:32 10° SSW 21:51:00 11° S 21:52:28 10° S visible
22 Sep - 23:43:21 10° SSW 23:47:10 15° SSE 23:50:52 10° SE visible
23 Sep - 01:36:03 10° SW 01:42:16 38° SSE 01:48:14 10° E night (unlit)
23 Sep - 03:29:54 10° WSW 03:36:23 62° NNW 03:42:46 10° NE night (unlit)
23 Sep - 05:26:46 10° WNW 05:30:31 16° NNW 05:34:18 10° N visible
23 Sep - 13:12:49 10° N 13:16:20 14° NNE 13:19:55 10° NE daylight
23 Sep - 15:03:41 10° NW 15:11:02 47° NNE 15:18:31 10° ESE daylight
23 Sep - 16:57:47 10° WNW 17:05:31 58° SSW 17:13:10 10° SE daylight
23 Sep - 18:54:45 10° WSW 19:00:33 22° SSW 19:06:14 10° SSE daylight
23 Sep - 20:54:08 10° SSW 20:56:33 12° S 20:58:56 10° SSE daylight
23 Sep - 22:49:46 10° SSW 22:52:52 13° S 22:55:54 10° SE visible
24 Sep - 00:42:28 10° SW 00:48:19 29° SSE 00:53:57 10° E visible
24 Sep - 02:35:57 10° WSW 02:42:40 87° NNW 02:49:10 10° ENE night (unlit)
24 Sep - 04:31:43 10° W 04:36:41 23° NNW 04:41:36 10° NNE night (unlit)
24 Sep - 14:10:17 10° NNW 14:17:02 34° NNE 14:23:58 10° E daylight
24 Sep - 16:03:38 10° WNW 16:11:28 77° SSW 16:19:20 10° ESE daylight
24 Sep - 17:59:46 10° W 18:06:19 28° SSW 18:12:45 10° SE daylight
24 Sep - 19:58:39 10° SW 20:02:05 13° S 20:05:30 10° SSE daylight
24 Sep - 21:55:57 10° SSW 21:58:29 12° S 22:00:58 10° SSE visible
24 Sep - 23:48:53 10° SSW 23:54:17 23° SSE 23:59:27 10° ESE visible
25 Sep - 01:42:06 10° SW 01:48:55 68° SSE 01:55:23 10° ENE night (unlit)
25 Sep - 03:37:06 10° W 03:42:54 32° NNW 03:48:35 10° NNE night (unlit)
25 Sep - 13:17:09 10° NNW 13:23:01 25° NNE 13:29:05 10° E daylight
25 Sep - 15:09:43 10° NW 15:17:26 80° NNE 15:25:22 10° ESE daylight
25 Sep - 17:05:02 10° W 17:12:07 36° SSW 17:19:11 10° SE daylight
25 Sep - 19:03:13 10° SW 19:07:40 16° SSW 19:12:03 10° SSE daylight
25 Sep - 21:01:44 10° SSW 21:04:02 11° S 21:06:18 10° SSE visible
25 Sep - 22:55:17 10° SSW 23:00:07 19° SSE 23:04:47 10° ESE visible
26 Sep - 00:48:20 10° SW 00:55:05 49° SSE 01:01:27 10° E visible
26 Sep - 02:42:45 10° WSW 02:49:09 47° NNW 02:55:20 10° NE night (unlit)
26 Sep - 04:41:23 10° NW 04:43:25 11° NNW 04:45:26 10° N night (unlit)
26 Sep - 12:24:23 10° N 12:28:59 17° NNE 12:33:43 10° ENE daylight
26 Sep - 14:16:01 10° NW 14:23:27 60° NNE 14:31:11 10° ESE daylight
26 Sep - 16:10:34 10° W 16:17:59 47° SSW 16:25:30 10° SE daylight
26 Sep - 18:07:57 10° WSW 18:13:17 19° SSW 18:18:33 10° SSE daylight
26 Sep - 20:06:58 10° SSW 20:09:32 12° S 20:12:04 10° SSE daylight
26 Sep - 22:01:37 10° SSW 22:05:51 16° SSE 22:09:57 10° SE visible
26 Sep - 23:54:37 10° SW 00:01:09 37° SSE 00:07:20 10° E visible
27 Sep - 01:48:35 10° WSW 01:55:26 67° NNW 02:01:55 10° NE night (unlit)
27 Sep - 03:45:23 10° WNW 03:49:30 17° NNW 03:53:33 10° N night (unlit)
27 Sep - 11:32:34 10° N 11:34:54 12° NNE 11:37:18 10° NE daylight
27 Sep - 13:22:32 10° NW 13:29:30 43° NNE 13:36:47 10° E daylight
27 Sep - 15:16:19 10° WNW 15:23:54 62° SSW 15:31:42 10° SE daylight
27 Sep - 17:12:55 10° WSW 17:18:57 24° SSW 17:25:00 10° SSE daylight
27 Sep - 19:11:50 10° SSW 19:15:01 13° S 19:18:11 10° SSE daylight
27 Sep - 21:07:51 10° SSW 21:11:29 14° S 21:15:01 10° SE visible
27 Sep - 23:00:56 10° SW 23:07:08 29° SSE 23:13:01 10° E visible
28 Sep - 00:54:33 10° WSW 01:01:39 88° SSE 01:08:19 10° ENE visible
28 Sep - 02:50:19 10° W 02:55:40 25° NNW 03:00:52 10° NNE night (unlit)
28 Sep - 12:29:17 10° NNW 12:35:33 31° NNE 12:42:07 10° E daylight
28 Sep - 14:22:19 10° WNW 14:29:52 82° SSW 14:37:46 10° ESE daylight
28 Sep - 16:18:06 10° W 16:24:42 30° SSW 16:31:24 10° SE daylight
28 Sep - 18:16:34 10° SW 18:20:31 14° S 18:24:28 10° SSE daylight
28 Sep - 20:13:53 10° SSW 20:17:01 13° S 20:20:07 10° SSE daylight
28 Sep - 22:07:15 10° SSW 22:13:00 23° SSE 22:18:29 10° ESE visible
29 Sep - 00:00:38 10° SW 00:07:49 65° SSE 00:14:32 10° ENE visible
29 Sep - 01:55:40 10° W 02:01:53 36° NNW 02:07:50 10° NNE night (unlit)
29 Sep - 11:36:21 10° NNW 11:41:37 22° NNE 11:47:05 10° ENE daylight
29 Sep - 13:28:32 10° NW 13:35:54 75° NNE 13:43:41 10° ESE daylight
29 Sep - 15:23:32 10° W 15:30:31 38° SSW 15:37:42 10° SE daylight
29 Sep - 17:21:20 10° SW 17:26:04 17° SSW 17:30:49 10° SSE daylight
29 Sep - 19:19:35 10° SSW 19:22:31 12° S 19:25:24 10° SSE daylight
29 Sep - 21:13:34 10° SSW 21:18:45 19° SSE 21:23:45 10° ESE visible
29 Sep - 23:06:47 10° SW 23:13:54 48° SSE 23:20:33 10° E visible
30 Sep - 01:01:15 10° WSW 01:08:07 51° NNW 01:14:35 10° NE night (unlit)
30 Sep - 02:59:26 10° NW 03:02:20 13° NNW 03:05:11 10° N night (unlit)
30 Sep - 10:43:54 10° N 10:47:38 15° NNE 10:51:29 10° ENE daylight
30 Sep - 12:34:58 10° NW 12:41:59 55° NNE 12:49:25 10° ESE daylight
30 Sep - 14:29:12 10° W 14:36:24 49° SSW 14:43:56 10° SE daylight
30 Sep - 16:26:15 10° WSW 16:31:40 20° SSW 16:37:10 10° SSE daylight
30 Sep - 18:24:54 10° SSW 18:27:58 12° S 18:31:00 10° SSE daylight
30 Sep - 20:19:49 10° SSW 20:24:24 16° SSE 20:28:51 10° SE daylight
30 Sep - 22:13:00 10° SW 22:19:52 37° SSE 22:26:22 10° E visible
01 Oct - 00:07:02 10° WSW 00:14:19 73° NNW 00:21:07 10° NE visible
01 Oct - 02:03:42 10° WNW 02:08:25 19° NNW 02:13:01 10° NNE night (unlit)
01 Oct - 11:41:38 10° NW 11:48:06 39° NNE 11:54:57 10° E daylight
01 Oct - 13:35:07 10° WNW 13:42:21 65° SSW 13:50:02 10° SE daylight
01 Oct - 15:31:22 10° WSW 15:37:21 24° SSW 15:43:30 10° SSE daylight
01 Oct - 17:29:56 10° SSW 17:33:25 13° S 17:36:54 10° SSE daylight
01 Oct - 19:26:01 10° SSW 19:29:58 14° S 19:33:50 10° SE daylight
01 Oct - 21:19:16 10° SW 21:25:45 29° SSE 21:31:58 10° E visible
01 Oct - 23:12:57 10° WSW 23:20:28 83° SSE 23:27:28 10° ENE visible
